Regional Weather Roundup
Issued by NWS

Home | Current Version | Previous Version | Text Only | Print | Product List | Glossary On
Versions: 1 2 3 4 5 6 7 8 9 10 11 12 13 14 15 16 17 18 19 20 21 22 23 24 25 26 27 28 29 30 31 32 33 34 35 36 37 38 39 40 41 42 43 44 45 46 47 48 49 50
000
ASUS43 KLMK 301002
RWRKY
KENTUCKY REGIONAL WEATHER ROUNDUP
NATIONAL WEATHER SERVICE LOUISVILLE KY
600 AM EDT THU JUL 30 2015

NOTE "FAIR" INDICATES FEW OR NO CLOUDS BELOW 12,000 FEET
WITH NO SIGNIFICANT WEATHER AND/OR OBSTRUCTIONS TO VISIBILITY.

KYZ001>023-026-027-061>063-070>075-301100-
WESTERN AND SOUTH CENTRAL KENTUCKY

CITY           SKY/WX    TMP DP  RH WIND       PRES   REMARKS
PADUCAH        CLEAR     71  63  75 N6        30.08R
HENDERSON      PTCLDY    68  61  77 CALM      30.07S
OWENSBORO      MOCLDY    71  67  87 N5        30.07S
HOPKINSVILLE   PTCLDY    72  66  82 N7        30.06R
BOWLING GREEN  CLOUDY    77  68  73 N6        30.06R
GLASGOW        NOT AVBL
$$

KYZ024-025-028>034-038-045-046-053-301100-
NORTH CENTRAL KENTUCKY

CITY           SKY/WX    TMP DP  RH WIND       PRES   REMARKS
LOUISVILLE/SDF MOCLDY    73  60  63 NW5       30.04R
LOUISVILLE/LOU MOCLDY    73  61  65 NW5       30.05R
FORT KNOX      PTCLDY    68  64  86 NW3       30.04R
$$

KYZ035>037-039>044-047>052-055>060-089>105-301100-
NORTHEAST KENTUCKY

CITY           SKY/WX    TMP DP  RH WIND       PRES   REMARKS
LEXINGTON      MOCLDY    71  66  84 NW8       30.03R
COVINGTON      MOCLDY    70  60  70 NW9G17    30.03R
FRANKFORT      PTCLDY    70  65  84 NW6       30.03R
$$

KYZ054-064>069-076>088-106>120-301100-
SOUTHEAST KENTUCKY

CITY           SKY/WX    TMP DP  RH WIND       PRES   REMARKS
JACKSON        CLOUDY    72  68  87 W5        30.03S
LONDON         CLOUDY    73  68  84 W5        30.04R
SOMERSET       NOT AVBL
MIDDLESBORO    MOCLDY    71  71  98 CALM      30.03R
MONTICELLO     CLOUDY    74  74 100 CALM      30.06S
$$



USA.gov is the U.S. government's official web portal to all federal, state and local government web resources and services.